Total_Precipitation_Accumulation
0.52 0.27 0.24 0.20 0.16 0.20 0.20 0.22 0.24 0.23 0.22 0.19 0.17 0.15 0.14 0.16 0.16 0.15 0.14 0.15 0.21 0.32 0.39 0.42 0.45 0.50 0.52 0.52 0.45 0.36 0.32 0.29 0.27 0.27 0.31 0.36 0.46 0.56 0.58 0.53 0.64 0.65 0.56
0.41 0.26 0.27 0.18 0.16 0.18 0.20 0.23 0.26 0.25 0.24 0.21 0.18 0.16 0.16 0.16 0.16 0.20 0.19 0.20 0.28 0.34 0.35 0.38 0.40 0.41 0.40 0.37 0.31 0.26 0.22 0.25 0.31 0.38 0.46 0.54 0.70 0.83 0.87 0.77 0.91 0.90 0.57
0.28 0.22 0.27 0.21 0.18 0.17 0.18 0.22 0.26 0.26 0.24 0.23 0.23 0.21 0.20 0.20 0.20 0.22 0.23 0.26 0.34 0.37 0.34 0.33 0.34 0.32 0.30 0.25 0.22 0.22 0.23 0.30 0.47 0.64 0.98 1.15 1.09 1.06 0.96 0.88 0.82 0.70 0.53
0.29 0.33 0.33 0.23 0.22 0.18 0.17 0.19 0.23 0.26 0.30 0.31 0.32 0.26 0.22 0.22 0.24 0.24 0.24 0.29 0.34 0.38 0.35 0.30 0.28 0.25 0.22 0.20 0.21 0.23 0.30 0.39 0.68 0.99 1.55 1.51 1.54 1.51 1.17 0.96 0.86 0.73 0.67
0.37 0.48 0.41 0.30 0.24 0.22 0.22 0.23 0.28 0.31 0.34 0.38 0.38 0.32 0.26 0.22 0.23 0.27 0.32 0.37 0.41 0.43 0.44 0.40 0.34 0.27 0.23 0.23 0.24 0.28 0.36 0.49 0.81 1.18 1.67 1.98 2.23 2.09 1.41 1.07 0.94 0.88 0.85
0.41 0.45 0.40 0.34 0.29 0.26 0.29 0.30 0.34 0.39 0.40 0.38 0.39 0.40 0.37 0.30 0.29 0.34 0.42 0.46 0.46 0.45 0.51 0.55 0.47 0.39 0.32 0.28 0.28 0.31 0.42 0.64 0.83 1.16 1.84 2.28 2.32 2.12 1.51 1.23 1.06 1.08 1.11
0.44 0.44 0.48 0.48 0.45 0.42 0.40 0.40 0.44 0.45 0.47 0.47 0.45 0.46 0.47 0.39 0.36 0.42 0.49 0.53 0.53 0.52 0.54 0.53 0.45 0.40 0.35 0.33 0.34 0.39 0.50 0.70 0.84 1.30 1.82 2.26 2.25 2.03 1.65 1.45 1.31 1.25 1.21
0.55 0.53 0.58 0.60 0.61 0.60 0.55 0.53 0.53 0.49 0.48 0.50 0.52 0.53 0.52 0.46 0.44 0.48 0.54 0.62 0.69 0.66 0.60 0.54 0.48 0.41 0.37 0.37 0.38 0.41 0.54 0.67 0.71 1.13 1.61 1.89 1.85 1.71 1.69 1.55 1.45 1.34 1.26
0.87 0.83 0.73 0.68 0.66 0.68 0.65 0.61 0.63 0.61 0.57 0.55 0.54 0.54 0.55 0.55 0.52 0.59 0.69 0.74 0.73 0.66 0.62 0.59 0.55 0.48 0.41 0.39 0.40 0.45 0.56 0.71 0.81 1.04 1.34 1.70 1.61 1.74 1.86 1.65 1.43 1.39 1.40
1.45 1.74 1.25 0.90 0.80 0.74 0.71 0.71 0.74 0.77 0.76 0.71 0.67 0.64 0.63 0.66 0.69 0.76 0.76 0.78 0.76 0.70 0.66 0.68 0.66 0.58 0.49 0.43 0.44 0.48 0.59 0.62 0.61 0.92 1.36 1.54 1.59 1.86 2.15 2.01 1.71 1.52 1.45
1.76 2.04 1.48 1.16 1.07 1.01 0.98 0.90 0.96 0.97 0.97 0.92 0.86 0.82 0.84 0.93 1.11 1.14 0.95 0.97 0.87 0.82 0.80 0.79 0.74 0.70 0.66 0.58 0.59 0.63 0.63 0.58 0.86 1.16 1.43 1.59 1.78 2.09 2.30 2.23 1.96 1.72 1.57
1.91 1.73 1.65 1.62 1.43 1.31 1.27 1.34 1.34 1.20 1.20 1.13 1.25 1.14 1.21 1.57 1.66 1.42 1.37 1.30 1.17 1.05 0.99 0.98 1.02 0.96 0.88 0.83 0.92 0.92 0.74 0.77 1.04 1.41 1.61 1.67 1.89 2.27 2.49 2.32 2.08 1.99 1.88
2.62 2.10 1.91 1.85 1.78 1.67 1.76 1.89 1.89 1.83 1.77 1.58 1.67 1.58 1.67 1.80 1.74 1.72 1.73 1.58 1.53 1.42 1.44 1.45 1.33 1.16 1.07 1.12 1.21 1.18 1.05 1.06 1.16 1.41 1.65 1.81 2.02 2.37 2.61 2.47 2.19 2.14 2.14
2.86 2.68 2.22 2.14 2.27 2.48 2.51 2.38 2.23 2.21 2.20 2.08 2.09 1.90 2.02 2.13 2.15 2.05 2.10 1.98 2.02 1.94 1.98 1.84 1.72 1.60 1.47 1.32 1.30 1.37 1.40 1.35 1.29 1.47 1.85 1.95 1.97 2.26 2.61 2.65 2.46 2.36 2.35
2.81 2.63 2.42 2.56 2.71 2.83 2.80 2.73 2.53 2.49 2.68 2.65 2.60 2.48 2.47 2.41 2.32 2.28 2.24 2.27 2.17 2.28 2.33 2.29 2.05 1.87 1.76 1.59 1.42 1.46 1.58 1.58 1.63 1.69 1.92 2.00 1.89 2.08 2.51 2.88 2.91 2.92 2.88
2.73 2.81 2.76 2.94 2.83 2.79 2.88 3.00 2.96 2.77 2.97 3.17 3.27 3.15 2.89 2.76 2.68 2.65 2.73 2.72 2.48 2.46 2.55 2.63 2.51 2.30 2.02 1.83 1.64 1.62 1.65 1.62 1.69 1.83 1.99 2.11 2.06 2.02 2.39 2.86 3.11 3.28 3.28
2.92 2.92 3.02 2.92 3.07 3.17 3.27 3.22 3.13 3.05 3.13 3.32 3.45 3.51 3.19 2.93 3.00 2.97 3.12 3.10 2.77 2.68 2.81 2.90 2.87 2.75 2.35 2.07 1.95 1.92 1.89 1.92 1.85 1.93 2.14 2.26 2.22 2.18 2.36 2.52 2.75 2.97 3.14
3.04 3.31 3.30 2.92 3.22 3.38 3.40 3.38 3.23 3.30 3.52 3.66 3.66 3.71 3.49 3.14 3.06 3.15 3.07 2.90 2.84 2.90 3.15 3.35 3.28 3.19 2.93 2.65 2.42 2.15 1.97 1.97 1.93 2.08 2.17 2.26 2.54 2.47 2.40 2.24 2.33 2.56 2.82
3.39 3.75 3.46 3.07 3.23 3.40 3.52 3.62 3.43 3.51 3.81 3.93 3.97 3.83 3.49 3.20 3.18 3.33 3.36 3.29 3.22 3.25 3.32 3.23 3.39 3.25 3.30 3.08 2.62 2.37 2.15 2.06 2.10 2.16 2.24 2.26 2.40 2.54 2.50 2.28 2.21 2.35 2.51
3.65 4.20 3.77 3.26 3.30 3.58 3.56 3.47 3.51 3.66 3.92 4.15 4.11 3.90 3.65 3.55 3.48 3.60 3.56 3.61 3.68 3.74 3.57 3.48 3.50 3.30 3.15 3.07 2.69 2.48 2.32 2.16 2.13 2.11 2.06 2.11 2.22 2.18 2.26 2.26 2.28 2.15 2.26
3.51 3.91 3.91 3.63 3.65 3.69 3.71 3.56 3.76 3.99 4.26 4.53 4.45 4.33 4.23 4.13 4.08 4.10 4.12 4.10 3.97 3.88 3.73 3.55 3.45 3.34 3.10 2.91 2.85 2.53 2.15 1.88 1.79 1.75 1.79 1.88 1.88 1.89 2.01 2.19 2.30 2.24 2.10
3.21 3.39 3.70 3.81 3.84 3.61 3.90 4.18 4.43 4.75 4.84 5.15 5.44 5.48 5.30 5.02 4.79 4.58 4.54 4.33 4.04 3.86 3.72 3.52 3.38 3.22 2.95 2.81 2.77 2.74 2.31 1.94 1.62 1.43 1.51 1.52 1.58 1.75 1.85 1.83 1.90 1.93 1.87
3.07 3.34 3.64 3.93 4.04 3.92 4.31 4.81 5.24 5.57 5.55 5.61 5.66 5.68 5.63 5.21 4.83 4.58 4.33 4.19 4.02 3.84 3.66 3.55 3.43 3.29 3.03 2.83 2.71 2.87 2.70 2.33 1.89 1.66 1.50 1.50 1.58 1.66 1.66 1.64 1.62 1.62 1.67
2.86 3.15 3.40 3.75 4.14 4.43 4.84 5.30 5.84 6.12 6.26 6.12 5.79 5.54 5.22 4.84 4.48 4.07 3.86 3.89 3.76 3.56 3.35 3.10 2.98 2.93 2.85 2.72 2.65 2.54 2.53 2.45 2.25 1.98 1.76 1.75 1.79 1.75 1.68 1.65 1.72 1.78 1.78
2.65 2.92 3.21 3.54 3.94 4.58 5.35 5.89 6.26 6.54 6.50 6.05 5.54 4.96 4.52 4.20 3.90 3.63 3.45 3.52 3.42 3.18 2.97 2.70 2.48 2.37 2.34 2.40 2.44 2.41 2.35 2.29 2.11 1.99 1.86 1.77 1.76 1.73 1.68 1.65 1.70 1.79 1.80
2.41 2.68 3.01 3.42 3.73 4.23 4.96 5.60 5.88 6.07 6.00 5.59 4.97 4.44 4.05 3.64 3.30 2.98 2.70 2.63 2.55 2.40 2.29 2.24 2.16 2.10 2.07 2.13 2.16 2.10 2.09 2.10 2.05 2.04 1.95 1.78 1.76 1.83 1.72 1.60 1.53 1.51 1.54